星链-31716 (STARLINK-31716 )

导读

STARLINK-31716是美国太空探索技术公司SpaceX旗下星链(Starlink)星座的卫星,于2024年4月2日发射入轨,运行在近地轨道。星链计划旨在构建全球覆盖的低轨卫星互联网,可向全球偏远地区、基础设施薄弱区域提供高速宽带接入服务,这颗卫星将助力星链网络扩容,进一步完善星座组网覆盖。截至目前,SpaceX已累计发射超万颗星链卫星,持续推进全球卫星互联网建设。

基本信息
目录编号:
59377
目录名称:
STARLINK-31716
国际标识:
2024-062D
轨道中心:
EARTH
卫星名称:
星链-31716
卫星全名:
星链-31716 (STARLINK-31716 )
卫星状态:
在轨 (已飞行885 天)
发射日期:
2024-04-02 UTC
国别 :
美国 (US)
星等 :
--
轨道信息
数据来源 国际轨道数据
星历时间: 2026-09-03T21:50:24+0800
14小时前
查看轨道信息
半长轴: 6843.395km
偏心率: 0.0001081
轨道倾角: 53.161°
近地点辐角 90.289°
升交点赤经 100.612°
平近点角 269.823°
近地点: 464.518km
远地点: 465.998km
周期: 93.900分钟
每日圈数: 15.335409
详细信息
固有亮度:
5
最大亮度:
0.3
卫星平台:
Starlink v2.0 mini
覆盖范围:
全球
运营商:
太空探索技术公司
运营商所在国:
美国
制造商(研发单位):
太空探索技术公司
制造商所在国:
美国
使用方式:
暂无
卫星简介
星链(Starlink)计划是由太空探索技术公司(SpaceX)提出的一个巨型低轨卫星互联网星座项目,计划在2019年至2024年间在太空搭建由约1.2万颗卫星组成的“星链”网络,其中1584颗将部署在地球上空550千米处的近地轨道,并从2020年开始工作。该卫星仍在工作。
2D轨道图
3D轨道图
轨道高度分析图
轨道倾角分析图
轨道综合分析图
查看轨道综合分析图
交会数据列表
事件ID 空间交会对象 最接近时刻(TCA) 交会距离 交会风险概率(CRP) 交会风险指数(CRI) 操作
CDM_260904-161205-937706-470621
2026-09-04T
16:12:25+0000
1.209 km
极远距离
1.214232E-5 中风险 0.57
CDM_260904-062005-937706-027721
2026-09-04T
06:20:39+0000
2.142 km
极远距离
2.11929E-6 低风险 0.42
CDM_260901-052505-937706-693821
2026-09-01T
05:25:15+0000
2.464 km
极远距离
1.571132E-6 低风险 0.39
CDM_260905-093805-937706-930421
2026-09-05T
09:38:26+0000
2.731 km
极远距离
1.515935E-6 低风险 0.39
CDM_260903-121705-937706-971121
2026-09-03T
12:17:37+0000
2.745 km
极远距离
1.50508E-6 低风险 0.39
CDM_260901-065905-937706-855421
2026-09-01T
06:59:52+0000
2.584 km
极远距离
1.4556E-6 低风险 0.38
CDM_260903-123205-937706-189221
2026-09-03T
12:32:44+0000
2.294 km
极远距离
1.436794E-6 低风险 0.38
CDM_260905-001905-937706-337221
2026-09-05T
00:19:07+0000
2.630 km
极远距离
1.426253E-6 低风险 0.38
CDM_260904-022605-937706-027721
2026-09-04T
02:26:06+0000
2.672 km
极远距离
1.386638E-6 低风险 0.38
CDM_260901-222905-937706-797321
2026-09-01T
22:29:43+0000
2.948 km
极远距离
1.335071E-6 低风险 0.38